OpenBCM V1.08-5-g2f4a (Linux)

Packet Radio Mailbox

IZ3LSV

[San Dona' di P. JN]

 Login: GUEST





  
WG3K   > KEPS     26.08.24 02:43l 387 Lines 18576 Bytes #62 (0) @ AMSAT
BID : ORB24239.1
Read: GUEST
Subj: 2Line Orbital Elements 24239.AMSAT
Path: IZ3LSV<I0OJJ<GB7CIP<GB7YEW<N3HYM<K5DAT<KA1VSC<WG3K
Sent: 240826/0134Z 7587@WG3K.#SMD.MD.USA.NOAM LinBPQ6.0.24


QST de W1STR

AMSAT Orbital Elements for Amateur Satellites in TLE Format
From Orbital Analysis Office
New England Sci-Tech STEM Education Center
Natick, MA August 26, 2024
To all radio amateurs


These element sets describe the orbits of various satellites 
in use by the amateur radio community. For details see:
www.amsat.org/keplerian-elements-formats/

A daily update of element sets is available at:
www.amsat.org/tle/daily-bulletin.txt
or without bulletin text:
www.amsat.org/tle/dailytle.txt


AO-07
1 07530U 74089B   24238.89160373 -.00000032  00000-0  88187-4 0  9991
2 07530 101.9834 234.2028 0011982 312.8649 106.5855 12.53678455278012
UO-11
1 14781U 84021B   24238.40315006  .00003713  00000-0  41851-3 0  9990
2 14781  97.7115 205.6365 0007420 195.7313 164.3674 14.87169104158772
AO-27
1 22825U 93061C   24238.43247318  .00000306  00000-0  13482-3 0  9999
2 22825  98.7828 291.9124 0007560 231.6038 128.4466 14.30557490612516
FO-29
1 24278U 96046B   24238.54784033  .00000066  00000-0  10362-3 0  9998
2 24278  98.5793 164.1062 0350364   8.7910 351.9156 13.53202862383817
NOAA-15
1 25338U 98030A   24238.81046271  .00000406  00000-0  18547-3 0  9997
2 25338  98.5662 264.4767 0011406 118.7289 241.5039 14.26677805367368
GO-32
1 25397U 98043D   24238.37366888  .00000299  00000-0  15000-3 0  9997
2 25397  98.9286 206.1525 0001064  15.9051 344.2160 14.24100677357268
ISS
1 25544U 98067A   24238.79648249  .00037060  00000-0  65167-3 0  9992
2 25544  51.6401 330.4662 0006620 274.6343 231.4630 15.50095409469349
NO-44
1 26931U 01043C   24238.87505209  .00000516  00000-0  22573-3 0  9998
2 26931  67.0512 151.5076 0007735 270.4602  89.5613 14.31336286196085
SO-50
1 27607U 02058C   24238.83629067  .00003430  00000-0  47398-3 0  9991
2 27607  64.5572   7.3985 0025668  73.8673 286.5254 14.79463120166839
CO-55
1 27844U 03031E   24238.75534187  .00000875  00000-0  40480-3 0  9990
2 27844  98.6792 244.8243 0008636 307.6142  52.4252 14.23405065 97715
CO-57
1 27848U 03031J   24238.43596580  .00000743  00000-0  35047-3 0  9991
2 27848  98.6822 244.7143 0008838 326.6986  33.3635 14.22825495 97380
RS-22
1 27939U 03042A   24238.85307686  .00003310  00000-0  55515-3 0  9992
2 27939  98.2999  36.2041 0011612 195.7052 298.7054 14.70387462118517
NOAA-18
1 28654U 05018A   24238.80226354  .00000398  00000-0  23574-3 0  9992
2 28654  98.8710 315.1815 0013614 222.5664 137.4454 14.13298147993094
CO-58
1 28895U 05043F   24238.63014527  .00004512  00000-0  78921-3 0  9993
2 28895  98.2108  14.6122 0016179 136.0654 224.1840 14.68277897  4641
CO-65
1 32785U 08021C   24238.52004668  .00010581  00000-0  90025-3 0  9990
2 32785  97.7605 203.3371 0013742  95.8840 264.3949 14.97927968885922
AAUSAT2
1 32788U 08021F   24238.38991411  .00038882  00000-0  16940-2 0  9995
2 32788  97.5988 219.0443 0000638 310.2548  49.8632 15.22090513888834
CO-66
1 32791U 08021J   24238.42571981  .00016331  00000-0  11257-2 0  9991
2 32791  97.6954 209.3133 0007813  83.2569 276.9547 15.05884293886936
RS-30
1 32953U 08025A   24238.84823278  .00000046  00000-0  25770-3 0  9992
2 32953  82.5013  46.1442 0018798 314.6884  45.2664 12.43146275737785
PRISM
1 33493U 09002B   24238.57089438  .00041590  00000-0  16995-2 0  9997
2 33493  98.1973 292.3768 0009847  12.9836 347.1651 15.24207363849590
NOAA-19
1 33591U 09005A   24238.83446168  .00000365  00000-0  21979-3 0  9999
2 33591  99.0415 295.3533 0014832  96.3106 263.9756 14.13091177801465
SRMSAT
1 37841U 11058D   24238.29189053  .00000706  00000-0  24129-3 0  9998
2 37841  19.9719  98.7982 0011813 134.3783  22.5551 14.11179974664333
RS-40
1 38735U 12041C   24238.50110090  .00000024  00000-0  10447-3 0  9994
2 38735  82.4762 126.6811 0018440  67.7672 292.5362 12.42613965547783
ZACUBE-1
1 39417U 13066B   24238.83864671  .00009628  00000-0  97115-3 0  9993
2 39417  97.7389 193.3095 0047147 290.8554  68.7619 14.90476268581957
Delfi-N3xt
1 39428U 13066N   24238.34885554  .00009735  00000-0  12007-2 0  9999
2 39428  97.8327 154.9130 0096852 223.2466 136.1114 14.79764050576314
GOMX-1
1 39430U 13066Q   24238.88076464  .00004655  00000-0  76454-3 0  9996
2 39430  97.7217 109.0335 0139680  31.7734 329.1804 14.64768974573241
LO-74
1 39440U 13066AA  24238.83970903  .00009404  00000-0  10777-2 0  9995
2 39440  97.8145 181.0518 0070182  47.7269 312.9867 14.84340640579868
AO-73
1 39444U 13066AE  24238.38861906  .00011493  00000-0  10703-2 0  9991
2 39444  97.7246 196.1848 0044094 270.5841  89.0327 14.93695978580436
DTUSAT-2
1 40030U 14033W   24238.83784652  .00012325  00000-0  99680-3 0  9998
2 40030  98.0162 193.2038 0006747 297.9880  62.0659 14.99913628553641
EO-80
1 40032U 14033Y   24238.60440101  .00011835  00000-0  95711-3 0  9999
2 40032  98.0078 192.9617 0007339 271.1254  88.9128 14.99922467553071
XW-2C
1 40906U 15049H   24238.86845551  .00046998  00000-0  87697-3 0  9995
2 40906  97.4757 257.7522 0008536  69.6063 290.6103 15.48612964495232
XW-2D
1 40907U 15049J   24238.86335829  .00093212  00000-0  11319-2 0  9996
2 40907  97.4679 261.1895 0005991  69.6846 290.5054 15.60264551495524
LILACSAT-2
1 40908U 15049K   24238.84430288  .00014120  00000-0  51438-3 0  9998
2 40908  97.5253 248.1391 0014155 104.8256 255.4552 15.28216188494124
XW-2B
1 40911U 15049N   24238.86791306  .00086227  00000-0  10987-2 0  9995
2 40911  97.4657 261.1635 0006274  72.2707 287.9233 15.59015322495389
IO-86
1 40931U 15052B   24223.74146178  .00002522  00000-0  25333-3 0  9991
2 40931   6.0008 322.8958 0012485 137.4084 222.7013 14.77988566479544
ChubuSat-2
1 41338U 16012B   24238.61190891  .00009636  00000-0  58042-3 0  9999
2 41338  31.0009 303.6362 0011117 210.1497 149.8502 15.09469342468091
ChubuSat-3
1 41339U 16012C   24238.84883922  .00007796  00000-0  47772-3 0  9992
2 41339  31.0080 301.0601 0011181 217.0316 142.9551 15.08769596468109
Horyu-4
1 41340U 16012D   24238.39964940  .00021545  00000-0  99626-3 0  9997
2 41340  31.0013 243.7729 0008480 309.5610  50.4281 15.18960087468676
Lapan A3
1 41603U 16040E   24238.83345075  .00005997  00000-0  23548-3 0  9994
2 41603  97.1431 249.4303 0011007 205.1609 154.9096 15.26006726453841
Pratham
1 41783U 16059A   24238.45527923  .00001850  00000-0  34979-3 0  9999
2 41783  97.8360 254.5470 0033050 158.3740 201.8868 14.65155549422684
CAS-2T
1 41847U 16066G   24238.44386811  .00001844  00000-0  27748-3 0  9995
2 41847  98.4552 309.2281 0352018 328.9234  29.1547 14.41661752409473
CAS-4B
1 42759U 17034B   24238.84837057  .00027775  00000-0  89537-3 0  9996
2 42759  43.0154 191.9823 0010481  98.2058 261.9984 15.31608167398079
CAS-4A
1 42761U 17034D   24238.84410702  .00027970  00000-0  89701-3 0  9993
2 42761  43.0193 190.3052 0010048 112.4233 247.7685 15.31776030398081
Aalto 1
1 42775U 17036L   24238.61680080  .00978533  52720-3  13273-2 0  9992
2 42775  97.0826 270.3445 0006397 216.4859 143.5989 16.06456834400077
D-SAT
1 42794U 17036AF  24238.84611088  .00009357  00000-0  63266-3 0  9998
2 42794  97.4792 218.2394 0105188 271.4130  87.5047 15.02283857391203
TechnoSat
1 42829U 17042E   24238.83354983  .00006494  00000-0  56190-3 0  9998
2 42829  97.3871  56.0440 0012162 193.3402 166.7501 14.97423135387592
AO-91
1 43017U 17073E   24238.16986870  .00015989  00000-0  95075-3 0  9998
2 43017  97.5660 111.2524 0206767  63.0216 299.1956 14.95086776365965
TianYi 6
1 43158U 18008D   24238.78298450  .00150329  00000-0  17469-2 0  9999
2 43158  97.2503 288.1463 0007680 185.8600 174.2569 15.61212006365271
S-Net D
1 43186U 18014G   24238.46292007  .00009101  00000-0  63251-3 0  9996
2 43186  97.5819 139.1053 0012122 124.8097 235.4272 15.05687861358923
S-Net B
1 43187U 18014H   24238.46555343  .00009301  00000-0  64633-3 0  9999
2 43187  97.5825 139.0625 0012939 121.4371 238.8123 15.05677965358925
S-Net A
1 43188U 18014J   24238.46401086  .00009198  00000-0  63903-3 0  9997
2 43188  97.5831 139.1795 0012855 121.8647 238.3833 15.05688816358929
S-Net C
1 43189U 18014K   24238.46763304  .00009460  00000-0  65698-3 0  9997
2 43189  97.5847 139.1446 0014594 116.2724 244.0004 15.05677789357476
Ten-Koh
1 43677U 18084G   24238.48584603  .00005804  00000-0  51141-3 0  9997
2 43677  98.0715  34.1173 0014046 145.5514 214.6619 14.96788281317080
PO-101
1 43678U 18084H   24238.79251878  .00004009  00000-0  36486-3 0  9998
2 43678  98.0801  38.8696 0009599 153.8319 206.3388 14.95757964317321
QO-100
1 43700U 18090A   24238.77965941  .00000134  00000-0  00000+0 0  9996
2 43700   0.0102 122.4791 0002512  70.9556  87.5481  1.00269864 21290
MinXSS-2
1 43758U 18099A   24238.41625486  .00017977  00000-0  10664-2 0  9999
2 43758  97.5474 299.7864 0017046  83.3706 276.9464 15.11282108313234
AO-95
1 43770U 18099N   24238.11591132  .00014697  00000-0  96954-3 0  9993
2 43770  97.5389 294.5368 0014433 126.6477 233.6081 15.07474195312944
RANGE-B
1 43772U 18099Q   24238.12910907  .00023018  00000-0  13225-2 0  9997
2 43772  97.5174 298.3029 0005190  42.5287 317.6345 15.12495446313135
RANGE-A
1 43773U 18099R   24238.61731252  .00008729  00000-0  64346-3 0  9999
2 43773  97.4965 289.6414 0014331  98.4408 261.8443 15.03457521312866
MOVE-II
1 43780U 18099Y   24238.45582100  .00036823  00000-0  17019-2 0  9995
2 43780  97.5144 300.9581 0006784 104.5316 255.6672 15.20057212313437
SNUSat 2
1 43782U 18099AA  24238.43842177  .00012868  00000-0  87249-3 0  9994
2 43782  97.5073 293.6229 0015219  69.5224 290.7636 15.06478734312998
SnugLite
1 43784U 18099AC  24238.66504122  .00010963  00000-0  72026-3 0  9997
2 43784  97.4887 293.1495 0005685  83.5051 276.6824 15.07767655313102
